• Join FlightAware (Why Join?)
  • Login
  • US Flag GB Flag 
20:54 EDT


 

Airport Tracker/Info


-or-


 

Live Flight TrackerFlight Track Log ✈ EJA929 ✈ 07-Jul-2013 ✈ KSUN - KSJC

Flight Track Log - Related Links

Times and Time Zones

All times are in EDT time to prevent confusion due to time zone crossing. See the EJA929 flight status page for this flight to view local times or setup timezone preferences in your user account.

Time Position Orientation Groundspeed Altitude Reporting Facility
EDT Latitude Longitude Course Direction KTS MPH feet Rate Location/Type
18:57 43.3472 -114.2089 191° South 216 249 13,700  Level Salt Lake Center
18:58 43.2803 -114.2539 206° Southwest 269 310 17,600 3,060 Climbing Salt Lake Center
18:59 42.8541 -114.3865 190° South  Level FlightAware Approximate
18:59 43.2278 -114.3403 230° Southwest 288 331 20,000  Level Salt Lake Center
19:00 42.7400 -114.4134 189° South  Level FlightAware Approximate
19:00 43.1667 -114.4333 228° Southwest 325 374 22,000  Level Salt Lake Center
19:01 42.6257 -114.4400 191° South  Level FlightAware Approximate
19:01 43.1058 -114.5292 229° Southwest 345 397 23,900  Level Salt Lake Center
19:02 42.5121 -114.4710 191° South  Level FlightAware Approximate
19:02 43.0306 -114.6472 229° Southwest 369 425 26,100  Level Salt Lake Center
19:03 42.9639 -114.7522 229° Southwest 379 436 27,900 1,140 Climbing Salt Lake Center
19:04 42.8917 -114.8633 228° Southwest 408 470 28,500 1,020 Climbing Salt Lake Center
19:05 42.8039 -114.9986 229° Southwest 424 488 30,100 1,500 Climbing Salt Lake Center
19:06 42.7283 -115.1153 229° Southwest 427 491 31,600 1,740 Climbing Salt Lake Center
19:07 42.6406 -115.2489 228° Southwest 423 487 33,800 2,040 Climbing Salt Lake Center
19:08 42.5669 -115.3597 228° Southwest 416 479 35,800 1,800 Climbing Salt Lake Center
19:09 42.4800 -115.4928 228° Southwest 423 487 37,500 1,500 Climbing Salt Lake Center
19:10 42.4061 -115.6056 228° Southwest 417 480 39,000 1,200 Climbing Salt Lake Center
19:11 42.3325 -115.7169 228° Southwest 413 475 40,000 480 Climbing Salt Lake Center
19:12 42.2419 -115.8508 228° Southwest 433 498 40,000  Level Salt Lake Center
19:13 42.1633 -115.9694 228° Southwest 442 509 40,000  Level Salt Lake Center
19:14 42.0689 -116.1097 228° Southwest 451 519 40,000  Level Salt Lake Center
19:15 41.9831 -116.2372 228° Southwest 450 518 40,000  Level Salt Lake Center
19:16 41.9017 -116.3561 227° Southwest 451 519 40,000  Level Salt Lake Center
19:17 41.8067 -116.4969 228° Southwest 455 524 40,000 -60 Level Salt Lake Center
19:18 41.7256 -116.6158 228° Southwest 453 521 39,900  Descending Salt Lake Center
19:19 41.6431 -116.7361 227° Southwest 458 527 40,000  Climbing Salt Lake Center
19:20 41.5472 -116.8742 227° Southwest 456 525 40,000  Level Salt Lake Center
19:21 41.4653 -116.9950 228° Southwest 458 527 40,000  Level Salt Lake Center
19:22 41.3675 -117.1328 227° Southwest 460 529 40,000  Level Salt Lake Center
19:23 41.2844 -117.2525 227° Southwest 460 529 40,000 -60 Level Salt Lake Center
19:24 41.1875 -117.3908 227° Southwest 459 528 39,900  Descending Salt Lake Center
19:25 41.1042 -117.5097 227° Southwest 459 528 40,000  Climbing Salt Lake Center
19:26 41.0058 -117.6469 227° Southwest 461 531 40,000  Level Salt Lake Center
19:28 40.9219 -117.7661 227° Southwest 462 532 40,000  Level Salt Lake Center
19:29 40.8239 -117.9028 227° Southwest 462 532 40,000 -60 Level Salt Lake Center
19:30 40.7383 -118.0217 226° Southwest 465 535 39,900  Descending Salt Lake Center
19:31 40.6389 -118.1586 226° Southwest 464 534 40,000  Climbing Salt Lake Center
19:32 40.5539 -118.2753 226° Southwest 462 532 40,000  Level Salt Lake Center
19:33 40.4300 -118.3647 209° Southwest 457 526 40,000  Level Salt Lake Center
19:34 40.3136 -118.4239 201° Southwest 462 532 40,000  Level Salt Lake Center
19:35 40.1994 -118.4850 202° Southwest 463 533 40,000  Level Salt Lake Center
19:36 40.0650 -118.5547 202° Southwest 463 533 40,000  Level Salt Lake Center
19:37 39.9517 -118.6144 202° Southwest 463 533 40,000 -360 Level Salt Lake Center
19:38 39.8325 -118.6781 202° Southwest 463 533 39,300 -540 Descending Salt Lake Center
19:39 39.6883 -118.7539 202° Southwest 466 536 39,000 -180 Descending Salt Lake Center
19:40 39.5686 -118.8169 202° Southwest 468 539 39,000  Level Salt Lake Center
19:41 39.4133 -118.8983 202° Southwest 475 547 39,000  Level Oakland Center
19:42 39.2903 -118.9608 201° Southwest 475 547 39,000  Level Oakland Center
19:43 39.1608 -119.0278 202° Southwest 470 541 39,000  Level Oakland Center
19:44 39.0386 -119.0894 201° Southwest 471 542 39,000  Level Oakland Center
19:45 38.9186 -119.1514 202° Southwest 468 539 39,000  Level Oakland Center
19:46 38.7953 -119.2139 202° Southwest 473 544 39,000  Level Oakland Center
19:47 38.6492 -119.2886 202° Southwest 472 543 39,000 -360 Level Oakland Center
19:48 38.5269 -119.3489 201° Southwest 470 541 38,300 -1,380 Descending Oakland Center
19:49 38.4050 -119.4106 202° Southwest 470 541 36,200 -2,100 Descending Oakland Center
19:50 38.2919 -119.4672 201° Southwest 479 551 34,000 -2,400 Descending Oakland Center
19:51 38.1653 -119.5306 201° Southwest 487 560 31,400 -2,280 Descending Oakland Center
19:52 38.0161 -119.6047 201° Southwest 479 551 29,400 -2,040 Descending Oakland Center
19:54 37.8881 -119.6681 201° Southwest 485 558 27,300 -1,800 Descending Oakland Center
19:55 37.7592 -119.7306 201° Southwest 491 565 25,800 -1,620 Descending Oakland Center
19:56 37.6486 -119.8183 212° Southwest 475 547 24,100 -900 Descending Oakland Center
19:57 37.5589 -119.9397 227° Southwest 474 545 24,000 -420 Descending Oakland Center
19:58 37.4706 -120.0608 227° Southwest 469 540 23,300 -900 Descending Oakland Center
19:59 37.3833 -120.1786 227° Southwest 462 532 22,200 -1,620 Descending Oakland Center
20:00 37.2975 -120.2939 227° Southwest 455 524 20,100 -2,280 Descending Oakland Center
20:01 37.2200 -120.4128 231° Southwest 450 518 17,600 -2,820 Descending Oakland Center
20:01 37.2000 -120.5167 256° West 502 578 15,800 -3,000 Descending Northern Cal TRACON
20:02 37.1667 -120.6667 254° West 408 470 13,100 -2,340 Descending Northern Cal TRACON
20:03 37.1333 -120.8000 253° West 403 464 11,200 -1,800 Descending Northern Cal TRACON
20:04 37.1214 -120.8622 256° West 381 438 10,400 -780 Descending Oakland Center
20:05 37.0756 -120.9856 245° Southwest 391 450 10,000 -240 Descending Oakland Center
20:06 37.0111 -121.0939 233° Southwest 386 444 10,000  Level Oakland Center
20:07 36.9536 -121.1925 234° Southwest 385 443 10,000 -300 Level Oakland Center
20:08 36.9539 -121.3203 270° West 318 366 9,400 -1,080 Descending Oakland Center
20:09 36.9886 -121.4131 295° West 297 342 7,900 -1,800 Descending Oakland Center
20:10 37.0386 -121.4914 309° West 294 338 5,800 -1,440 Descending Oakland Center
20:11 37.0883 -121.5689 309° West 288 331 5,000 -420 Descending Oakland Center
20:12 37.1350 -121.6378 310° West 267 307 5,000  Level Oakland Center
20:13 37.1861 -121.7189 308° West 290 334 5,000 -660 Level Oakland Center
20:14 37.2233 -121.7803 307° West 248 285 3,700 -1,320 Descending Oakland Center
20:15 37.2642 -121.8272 318° Northwest 217 250 2,400 -1,200 Descending Oakland Center
20:16 37.3081 -121.8733 320° Northwest 189 217 1,300 -960 Descending Oakland Center
20:17 37.3367 -121.9031 320° Northwest 156 180 500 9,120 Descending Oakland Center
20:18 37.3600 -121.9289 319° Northwest 132 152 20,000 18,840 Climbing Oakland Center
20:20 37.3627 -121.9291 North  Level Estimated